294  
ASCA42 TJSJ 260710  
RWRPR  
PUERTO RICO/U.S. VIRGIN ISLANDS HOURLY WEATHER ROUNDUP  
NATIONAL WEATHER SERVICE SAN JUAN PR  
300 AM AST THU APR 26 2018  
 
PRZ001>002-007>008-010-260800-  
PUERTO RICO  
 
CITY SKY/WX TMP DP RH WIND PRES REMARKS
 
SAN JUAN LMM PTCLDY 79 73 83 CALM 29.95F  
AGUADILLA CLEAR 72 66 83 CALM 29.97F  
CEIBA MOCLDY 79 77 94 SE8 29.97  

 
 
VIZ001>002-260800-  
U.S. VIRGIN ISLANDS  
 
CITY SKY/WX TMP DP RH WIND PRES REMARKS
 
CHARLOTTE AMA MOCLDY 79 77 94 SE18G26 29.95  
CHRISTIANSTED PTCLDY 79 75 89 SE8G17 29.96F  

 
 
HOURLY WEATHER ROUNDUP FOR THE NEWS MEDIA  
 
CITY SKY/WX TMP DP RH WIND PRES REMARKS
 
ORLANDO FAIR 64 59 83 SW5 29.90F  
NEW YORK CLOUDY 51 51 100 SW5 29.60 FOG  
NEWARK CLOUDY 56 56 100 W8 29.60F FOG  
CHICAGO FAIR 38 29 70 CALM 29.97F  
HARTFORD CLOUDY 54 54 100 CALM 29.62F FOG  
BOSTON FOG 51 51 100 SE5 29.61F VSB 1/2  
DALLAS FAIR 50 47 89 NW6 30.07F  
PHILADELPHIA MOCLDY 60 51 72 NW12 29.66S  
LOS ANGELES CLOUDY 57 52 83 W10 30.05S  
WASHINGTON DC FAIR 53 42 66 NW12G20 29.80R  
 
CLICK HERE TO GO TO PREVIOUS BULLETINS.

The Nexlab PR Page Main Text Page